PDT1014 KPWM-KBOS

Flight info

Callsign PDT1014
Flight time 0h 52m
Altitude 20000
Route OOSHN OOSHN5
Aircraft E145/M-SABDFGRW/S

Departure

Time 2026-05-06 19:59
Airport Portland International Jetport (KPWM)

Arrival

Time 2026-05-06 20:52
Airport Boston Logan International Airport (KBOS)
Time Latitude Longitude Altitude Speed Heading
2026-05-06 19:36 43.64792 -70.31363 65 ft 0 kts 51°
2026-05-06 19:48 43.64792 -70.31362 65 ft 0 kts 51°
2026-05-06 19:48 43.64793 -70.31362 65 ft 0 kts 51°
2026-05-06 19:48 43.64793 -70.31361 65 ft 0 kts 51°
2026-05-06 19:49 43.64794 -70.31359 65 ft 0 kts 51°
2026-05-06 19:49 43.64795 -70.31358 65 ft 0 kts 51°
2026-05-06 19:49 43.64793 -70.31361 65 ft 2 kts 48°
2026-05-06 19:50 43.64783 -70.31376 65 ft 2 kts 47°
2026-05-06 19:50 43.64773 -70.31391 65 ft 2 kts 47°
2026-05-06 19:50 43.64763 -70.31407 65 ft 2 kts 63°
2026-05-06 19:50 43.64761 -70.31427 66 ft 2 kts 104°
2026-05-06 19:51 43.64767 -70.31443 66 ft 1 kts 139°
2026-05-06 19:51 43.64769 -70.31446 66 ft 0 kts 142°
2026-05-06 19:54 43.64760 -70.31435 66 ft 5 kts 141°
2026-05-06 19:54 43.64717 -70.31385 65 ft 9 kts 140°
2026-05-06 19:54 43.64659 -70.31319 64 ft 12 kts 141°
2026-05-06 19:54 43.64611 -70.31312 64 ft 7 kts 229°
2026-05-06 19:55 43.64594 -70.31338 64 ft 0 kts 220°
2026-05-06 19:55 43.64589 -70.31342 64 ft 2 kts 213°
2026-05-06 19:55 43.64552 -70.31349 64 ft 8 kts 180°
2026-05-06 19:55 43.64506 -70.31416 65 ft 13 kts 276°
2026-05-06 19:56 43.64518 -70.31576 67 ft 21 kts 275°
2026-05-06 19:56 43.64533 -70.31812 68 ft 26 kts 275°
2026-05-06 19:56 43.64551 -70.32066 67 ft 26 kts 275°
2026-05-06 19:56 43.64569 -70.32332 66 ft 28 kts 276°
2026-05-06 19:57 43.64598 -70.32496 65 ft 13 kts 335°
2026-05-06 19:57 43.64690 -70.32516 65 ft 14 kts 303°
2026-05-06 19:57 43.64675 -70.32584 65 ft 0 kts 205°
2026-05-06 19:58 43.64633 -70.32592 65 ft 13 kts 185°
2026-05-06 19:58 43.64574 -70.32448 65 ft 29 kts 95°
2026-05-06 19:58 43.64533 -70.31841 68 ft 98 kts 97°
2026-05-06 19:59 43.64454 -70.30626 95 ft 146 kts 104°
2026-05-06 19:59 43.64395 -70.29154 496 ft 165 kts 96°
2026-05-06 19:59 43.64451 -70.27518 1073 ft 175 kts 99°
2026-05-06 19:59 43.64410 -70.25798 1638 ft 193 kts 102°
2026-05-06 20:00 43.64361 -70.23882 2260 ft 210 kts 102°
2026-05-06 20:00 43.64285 -70.21808 2852 ft 232 kts 102°
2026-05-06 20:00 43.64158 -70.19391 2906 ft 262 kts 103°
2026-05-06 20:00 43.63998 -70.16846 2910 ft 267 kts 102°
2026-05-06 20:01 43.63831 -70.14269 3229 ft 283 kts 102°
2026-05-06 20:01 43.63654 -70.11632 4398 ft 277 kts 103°
2026-05-06 20:01 43.63107 -70.09178 5411 ft 260 kts 132°
2026-05-06 20:01 43.62036 -70.07210 6297 ft 260 kts 137°
2026-05-06 20:02 43.60927 -70.05241 7117 ft 267 kts 137°
2026-05-06 20:02 43.59808 -70.03234 8019 ft 269 kts 138°
2026-05-06 20:02 43.58610 -70.01287 8849 ft 262 kts 151°
2026-05-06 20:02 43.57031 -70.00313 9582 ft 247 kts 180°
2026-05-06 20:03 43.55386 -70.00683 10220 ft 242 kts 210°
2026-05-06 20:03 43.54016 -70.02032 10936 ft 246 kts 219°
2026-05-06 20:03 43.52660 -70.03462 11702 ft 249 kts 219°
2026-05-06 20:03 43.51277 -70.04920 12409 ft 254 kts 220°
2026-05-06 20:04 43.49841 -70.06383 13107 ft 260 kts 214°
2026-05-06 20:04 43.48129 -70.07231 13766 ft 271 kts 198°
2026-05-06 20:04 43.46213 -70.07702 13906 ft 296 kts 194°
2026-05-06 20:04 43.44065 -70.08115 13921 ft 320 kts 193°
2026-05-06 20:05 43.41818 -70.08524 13916 ft 331 kts 193°
2026-05-06 20:05 43.39502 -70.08945 13911 ft 339 kts 193°
2026-05-06 20:05 43.37135 -70.09372 13917 ft 345 kts 193°
2026-05-06 20:05 43.34732 -70.09808 13907 ft 351 kts 193°
2026-05-06 20:06 43.32309 -70.10244 13912 ft 356 kts 193°
2026-05-06 20:06 43.29825 -70.10693 13913 ft 360 kts 193°
2026-05-06 20:06 43.27411 -70.11125 13914 ft 347 kts 193°
2026-05-06 20:06 43.25029 -70.11556 13922 ft 337 kts 193°
2026-05-06 20:07 43.22748 -70.11966 13920 ft 329 kts 193°
2026-05-06 20:07 43.20510 -70.12369 13918 ft 321 kts 193°
2026-05-06 20:07 43.18332 -70.12760 13918 ft 315 kts 193°
2026-05-06 20:07 43.16168 -70.13148 13913 ft 309 kts 194°
2026-05-06 20:08 43.14047 -70.13527 13915 ft 305 kts 194°
2026-05-06 20:08 43.11959 -70.13902 13915 ft 301 kts 194°
2026-05-06 20:08 43.09904 -70.14269 13919 ft 297 kts 194°
2026-05-06 20:08 43.07870 -70.14632 13930 ft 294 kts 194°
2026-05-06 20:09 43.05832 -70.14996 13919 ft 292 kts 194°
2026-05-06 20:09 43.03838 -70.15353 13909 ft 293 kts 195°
2026-05-06 20:09 43.01776 -70.15726 13920 ft 305 kts 194°
2026-05-06 20:09 42.99636 -70.16109 13925 ft 315 kts 194°
2026-05-06 20:10 42.97431 -70.16503 13916 ft 324 kts 194°
2026-05-06 20:10 42.95153 -70.16909 13908 ft 332 kts 194°
2026-05-06 20:10 42.92861 -70.17318 13894 ft 339 kts 193°
2026-05-06 20:10 42.90509 -70.17737 13905 ft 344 kts 194°
2026-05-06 20:11 42.88099 -70.18166 13924 ft 349 kts 193°
2026-05-06 20:11 42.85708 -70.18591 13932 ft 350 kts 194°
2026-05-06 20:11 42.83305 -70.19016 13911 ft 343 kts 194°
2026-05-06 20:11 42.80975 -70.19430 13901 ft 333 kts 194°
2026-05-06 20:12 42.78690 -70.19836 13917 ft 325 kts 194°
2026-05-06 20:12 42.76497 -70.20224 13924 ft 318 kts 194°
2026-05-06 20:12 42.74316 -70.20612 13919 ft 312 kts 194°
2026-05-06 20:12 42.72197 -70.20988 13913 ft 306 kts 194°
2026-05-06 20:13 42.70092 -70.21361 13917 ft 302 kts 194°
2026-05-06 20:13 42.68009 -70.21729 13925 ft 298 kts 195°
2026-05-06 20:13 42.65977 -70.22086 13921 ft 294 kts 194°
2026-05-06 20:13 42.63988 -70.22424 13826 ft 279 kts 194°
2026-05-06 20:14 42.62127 -70.22722 13720 ft 268 kts 195°
2026-05-06 20:14 42.60296 -70.23003 13611 ft 260 kts 194°
2026-05-06 20:14 42.58524 -70.23267 13506 ft 253 kts 195°
2026-05-06 20:14 42.56937 -70.24049 13246 ft 239 kts 220°
2026-05-06 20:15 42.55961 -70.25817 12798 ft 243 kts 248°
2026-05-06 20:15 42.55870 -70.28155 12360 ft 264 kts 275°
2026-05-06 20:15 42.56603 -70.30500 11925 ft 280 kts 287°
2026-05-06 20:15 42.57475 -70.32873 11457 ft 283 kts 287°
2026-05-06 20:16 42.58344 -70.35268 10991 ft 283 kts 284°
2026-05-06 20:16 42.58892 -70.37788 10516 ft 273 kts 270°
2026-05-06 20:16 42.59071 -70.40301 10051 ft 269 kts 264°
2026-05-06 20:16 42.59125 -70.42832 9564 ft 269 kts 262°
2026-05-06 20:17 42.59094 -70.45312 9091 ft 264 kts 260°
2026-05-06 20:17 42.59003 -70.47781 8745 ft 254 kts 259°
2026-05-06 20:17 42.58900 -70.50107 8583 ft 241 kts 258°
2026-05-06 20:17 42.58796 -70.52310 8423 ft 230 kts 258°
2026-05-06 20:18 42.58695 -70.54427 8257 ft 220 kts 258°
2026-05-06 20:18 42.58579 -70.56451 8065 ft 214 kts 253°
2026-05-06 20:18 42.58185 -70.58384 7909 ft 211 kts 247°
2026-05-06 20:18 42.57771 -70.60285 7764 ft 211 kts 247°
2026-05-06 20:19 42.57357 -70.62184 7618 ft 210 kts 247°
2026-05-06 20:19 42.56947 -70.64061 7489 ft 209 kts 248°
2026-05-06 20:19 42.56532 -70.65962 7321 ft 208 kts 247°
2026-05-06 20:19 42.56123 -70.67834 7185 ft 208 kts 246°
2026-05-06 20:20 42.55965 -70.69822 7013 ft 223 kts 271°
2026-05-06 20:20 42.56708 -70.71767 6800 ft 250 kts 299°
2026-05-06 20:20 42.57849 -70.73554 6456 ft 254 kts 297°
2026-05-06 20:20 42.58949 -70.75418 6087 ft 252 kts 297°
2026-05-06 20:21 42.60279 -70.77006 5926 ft 262 kts 324°
2026-05-06 20:21 42.62068 -70.77479 5923 ft 268 kts 357°
2026-05-06 20:21 42.63810 -70.76735 5929 ft 262 kts 21°
2026-05-06 20:21 42.65476 -70.75810 5827 ft 251 kts 15°
2026-05-06 20:22 42.67083 -70.74995 5815 ft 239 kts 15°
2026-05-06 20:22 42.68621 -70.74232 5710 ft 233 kts 15°
2026-05-06 20:22 42.70118 -70.73456 5414 ft 232 kts 15°
2026-05-06 20:22 42.71617 -70.72681 5086 ft 231 kts 15°
2026-05-06 20:23 42.73125 -70.71901 4775 ft 229 kts 16°
2026-05-06 20:23 42.74627 -70.71565 4389 ft 212 kts 337°
2026-05-06 20:23 42.75809 -70.72419 4029 ft 180 kts 292°
2026-05-06 20:23 42.76102 -70.73814 3934 ft 140 kts 247°
2026-05-06 20:24 42.75744 -70.74966 3935 ft 127 kts 237°
2026-05-06 20:24 42.75335 -70.76010 3905 ft 123 kts 236°
2026-05-06 20:24 42.74945 -70.77020 3888 ft 119 kts 235°
2026-05-06 20:24 42.74588 -70.77966 3911 ft 110 kts 236°
2026-05-06 20:25 42.74247 -70.78889 3896 ft 106 kts 236°
2026-05-06 20:25 42.73922 -70.79779 3898 ft 105 kts 235°
2026-05-06 20:25 42.73555 -70.80629 3885 ft 105 kts 221°
2026-05-06 20:25 42.72955 -70.81293 3923 ft 114 kts 218°
2026-05-06 20:26 42.72281 -70.81958 3923 ft 124 kts 215°
2026-05-06 20:26 42.71536 -70.82607 3925 ft 133 kts 212°
2026-05-06 20:26 42.70691 -70.83260 3924 ft 142 kts 211°
2026-05-06 20:26 42.69800 -70.83881 3922 ft 147 kts 208°
2026-05-06 20:27 42.68866 -70.84476 3921 ft 150 kts 208°
2026-05-06 20:27 42.67908 -70.85046 3916 ft 150 kts 206°
2026-05-06 20:27 42.66942 -70.85589 3912 ft 150 kts 206°
2026-05-06 20:27 42.65969 -70.86114 3914 ft 149 kts 205°
2026-05-06 20:28 42.65010 -70.86616 3915 ft 148 kts 205°
2026-05-06 20:28 42.64035 -70.87116 3918 ft 148 kts 205°
2026-05-06 20:28 42.63072 -70.87601 3914 ft 147 kts 204°
2026-05-06 20:28 42.62116 -70.88077 3922 ft 146 kts 204°
2026-05-06 20:29 42.61162 -70.88549 3920 ft 146 kts 204°
2026-05-06 20:29 42.60209 -70.89017 3925 ft 145 kts 204°
2026-05-06 20:29 42.59258 -70.89482 3963 ft 139 kts 204°
2026-05-06 20:29 42.58376 -70.89912 3919 ft 133 kts 204°
2026-05-06 20:30 42.57525 -70.90325 3911 ft 125 kts 204°
2026-05-06 20:30 42.55929 -70.91104 3799 ft 123 kts 204°
2026-05-06 20:30 42.55115 -70.91500 3674 ft 127 kts 204°
2026-05-06 20:31 42.54259 -70.91917 3520 ft 131 kts 204°
2026-05-06 20:31 42.53393 -70.92339 3354 ft 136 kts 204°
2026-05-06 20:31 42.52482 -70.92780 3173 ft 140 kts 204°
2026-05-06 20:31 42.51556 -70.93230 2982 ft 144 kts 202°
2026-05-06 20:32 42.50608 -70.93688 2778 ft 144 kts 202°
2026-05-06 20:32 42.49654 -70.94149 2576 ft 139 kts 202°
2026-05-06 20:32 42.48827 -70.94549 2402 ft 116 kts 201°
2026-05-06 20:32 42.48111 -70.94895 2232 ft 102 kts 202°
2026-05-06 20:33 42.47475 -70.95203 2095 ft 94 kts 202°
2026-05-06 20:33 42.46846 -70.95508 1970 ft 95 kts 202°
2026-05-06 20:33 42.46233 -70.95805 1842 ft 92 kts 201°
2026-05-06 20:33 42.45626 -70.96099 1709 ft 94 kts 201°
2026-05-06 20:34 42.45004 -70.96400 1586 ft 96 kts 201°
2026-05-06 20:34 42.44367 -70.96708 1469 ft 98 kts 201°
2026-05-06 20:34 42.43717 -70.97022 1341 ft 100 kts 200°
2026-05-06 20:34 42.43047 -70.97347 1205 ft 103 kts 200°
2026-05-06 20:35 42.42356 -70.97681 1067 ft 107 kts 201°
2026-05-06 20:35 42.41656 -70.98019 929 ft 108 kts 200°
2026-05-06 20:35 42.40939 -70.98365 771 ft 108 kts 200°
2026-05-06 20:35 42.40228 -70.98698 639 ft 108 kts 199°
2026-05-06 20:36 42.39521 -70.99046 481 ft 109 kts 200°
2026-05-06 20:36 42.38800 -70.99383 321 ft 111 kts 198°
2026-05-06 20:36 42.38057 -70.99746 185 ft 114 kts 199°
2026-05-06 20:36 42.37280 -71.00131 489 ft 118 kts 200°
2026-05-06 20:37 42.36501 -71.00269 893 ft 118 kts 169°
2026-05-06 20:37 42.35847 -70.99502 1129 ft 144 kts 126°
2026-05-06 20:37 42.35754 -70.98027 1415 ft 178 kts 84°
2026-05-06 20:37 42.36210 -70.96446 1898 ft 183 kts 76°
2026-05-06 20:38 42.36708 -70.94814 2302 ft 191 kts 76°
2026-05-06 20:38 42.37225 -70.93071 2603 ft 215 kts 76°
2026-05-06 20:38 42.37797 -70.91054 2675 ft 246 kts 77°
2026-05-06 20:38 42.38418 -70.88771 2843 ft 276 kts 76°
2026-05-06 20:39 42.39069 -70.86283 2907 ft 280 kts 76°
2026-05-06 20:39 42.39707 -70.83825 2919 ft 279 kts 76°
2026-05-06 20:39 42.40384 -70.81361 2918 ft 282 kts 69°
2026-05-06 20:39 42.41648 -70.79324 2929 ft 285 kts 34°
2026-05-06 20:40 42.43430 -70.78231 2941 ft 280 kts 16°
2026-05-06 20:40 42.45253 -70.77354 2928 ft 280 kts 16°
2026-05-06 20:40 42.47091 -70.76468 2922 ft 279 kts 16°
2026-05-06 20:40 42.48920 -70.75594 2923 ft 278 kts 16°
2026-05-06 20:41 42.50740 -70.74778 2918 ft 274 kts
2026-05-06 20:41 42.52586 -70.74798 2938 ft 260 kts 346°
2026-05-06 20:41 42.54371 -70.75085 2920 ft 258 kts 345°
2026-05-06 20:41 42.56157 -70.75360 2919 ft 256 kts 346°
2026-05-06 20:42 42.57917 -70.75655 2911 ft 252 kts 340°
2026-05-06 20:42 42.59378 -70.76643 2926 ft 222 kts 303°
2026-05-06 20:42 42.60080 -70.78345 2938 ft 200 kts 276°
2026-05-06 20:42 42.60483 -70.80165 2918 ft 201 kts 276°
2026-05-06 20:43 42.60885 -70.81969 2912 ft 197 kts 276°
2026-05-06 20:43 42.61271 -70.83678 2908 ft 185 kts 276°
2026-05-06 20:43 42.61398 -70.85279 2899 ft 153 kts 244°
2026-05-06 20:43 42.60992 -70.86489 2949 ft 132 kts 236°
2026-05-06 20:44 42.60574 -70.87566 2922 ft 124 kts 234°
2026-05-06 20:44 42.59980 -70.88335 2940 ft 121 kts 215°
2026-05-06 20:44 42.59253 -70.88954 2922 ft 125 kts 211°
2026-05-06 20:44 42.58482 -70.89517 2929 ft 128 kts 208°
2026-05-06 20:45 42.57672 -70.90038 2920 ft 130 kts 207°
2026-05-06 20:45 42.56812 -70.90543 2918 ft 133 kts 206°
2026-05-06 20:45 42.55960 -70.91011 2920 ft 135 kts 205°
2026-05-06 20:45 42.55070 -70.91477 2914 ft 137 kts 204°
2026-05-06 20:46 42.54176 -70.91931 2904 ft 138 kts 204°
2026-05-06 20:46 42.53267 -70.92384 2903 ft 139 kts 202°
2026-05-06 20:46 42.52345 -70.92838 2904 ft 139 kts 203°
2026-05-06 20:46 42.51420 -70.93291 2877 ft 142 kts 202°
2026-05-06 20:47 42.50470 -70.93753 2714 ft 144 kts 203°
2026-05-06 20:47 42.49538 -70.94205 2537 ft 143 kts 202°
2026-05-06 20:47 42.48603 -70.94659 2362 ft 143 kts 202°
2026-05-06 20:47 42.47656 -70.95118 2167 ft 143 kts 202°
2026-05-06 20:48 42.46758 -70.95552 1974 ft 132 kts 201°
2026-05-06 20:48 42.45931 -70.95952 1813 ft 117 kts 201°
2026-05-06 20:48 42.45212 -70.96300 1641 ft 103 kts 200°
2026-05-06 20:48 42.44553 -70.96618 1502 ft 97 kts 201°
2026-05-06 20:49 42.43908 -70.96930 1384 ft 102 kts 201°
2026-05-06 20:49 42.43234 -70.97257 1246 ft 103 kts 200°
2026-05-06 20:49 42.42562 -70.97581 1108 ft 103 kts 200°
2026-05-06 20:49 42.41879 -70.97910 965 ft 103 kts 200°
2026-05-06 20:50 42.41205 -70.98237 831 ft 103 kts 199°
2026-05-06 20:50 42.40528 -70.98563 685 ft 105 kts 199°
2026-05-06 20:50 42.39835 -70.98898 543 ft 106 kts 199°
2026-05-06 20:50 42.39122 -70.99233 407 ft 110 kts 199°
2026-05-06 20:51 42.38397 -70.99577 274 ft 112 kts 199°
2026-05-06 20:51 42.37681 -70.99935 116 ft 109 kts 199°
2026-05-06 20:51 42.36956 -71.00284 15 ft 111 kts 198°
2026-05-06 20:51 42.36383 -71.00557 15 ft 59 kts 199°
2026-05-06 20:52 42.36177 -71.00690 16 ft 18 kts 229°
2026-05-06 20:52 42.36166 -71.00858 17 ft 19 kts 293°
2026-05-06 20:52 42.36177 -71.00892 17 ft 0 kts 293°
2026-05-06 20:53 42.36189 -71.00931 17 ft 10 kts 293°
2026-05-06 20:53 42.36223 -71.01035 18 ft 12 kts 294°
2026-05-06 20:53 42.36262 -71.01154 18 ft 14 kts 296°
2026-05-06 20:53 42.36318 -71.01279 18 ft 16 kts 302°
2026-05-06 20:54 42.36362 -71.01395 18 ft 12 kts 263°
2026-05-06 20:54 42.36289 -71.01453 18 ft 13 kts 199°
2026-05-06 20:54 42.36221 -71.01524 18 ft 13 kts 282°
2026-05-06 20:54 42.36249 -71.01646 18 ft 8 kts 305°
2026-05-06 20:55 42.36288 -71.01661 18 ft 0 kts 353°